START_TIME,STEP,MOV.,M29,t_acc.,H22,t_acc.,H26,t_acc.,H30,t_acc.
1989-08-27T03:00:32.490 ,2,0,0.,24.0,0.,24.0,0.,24.0,0.,24.0
1989-08-27T03:00:56.490 ,3,1,0.,24.0,0.,24.0,0.,24.0,0.,24.0
1989-08-27T03:01:20.490 ,3,0,0.,24.0,0.,24.0,0.,24.0,0.,24.0
1989-08-27T03:01:44.490 ,4,1,0.,24.0,0.,24.0,0.,24.0,0.,24.0
1989-08-27T03:02:08.490 ,4,0,0.,24.0,0.,24.0,0.,24.0,0.,24.0
1989-08-27T03:02:32.490 ,5,1,0.,24.0,0.,24.0,0.,24.0,0.,24.0
1989-08-27T03:02:56.490 ,5,0,0.,24.0,0.,24.0,0.,24.0,0.,24.0
1989-08-27T03:03:20.490 ,6,1,0.,24.0,0.,24.0,0.,24.0,0.,24.0
1989-08-27T03:03:44.490 ,6,0,0.,24.0,0.,24.0,0.,24.0,0.,24.0
1989-08-27T03:04:08.490 ,7,1,0.,24.0,0.,24.0,0.,24.0,0.,24.0
1989-08-27T03:04:32.490 ,7,0,0.,24.0,0.,24.0,0.,24.0,0.,24.0
1989-08-27T03:04:56.490 ,7,1,0.,24.0,0.,24.0,0.,24.0,0.,24.0
1989-08-27T03:05:20.490 ,7,0,0.,24.0,0.,24.0,0.,24.0,0.,24.0
1989-08-27T03:05:44.490 ,6,1,0.,24.0,0.,24.0,0.,24.0,0.,24.0
1989-08-27T03:06:08.490 ,6,0,0.,24.0,0.,24.0,0.,24.0,0.,24.0
1989-08-27T03:06:32.490 ,5,1,0.,24.0,0.,24.0,0.,24.0,0.,24.0
1989-08-27T03:06:56.490 ,5,0,0.,24.0,0.,24.0,0.,24.0,0.,24.0
1989-08-27T03:07:20.490 ,4,1,0.,24.0,0.,24.0,0.,24.0,0.,24.0
1989-08-27T03:07:44.490 ,4,0,0.,24.0,0.,24.0,0.,24.0,0.,24.0
1989-08-27T03:08:08.490 ,3,1,0.,24.0,0.,24.0,0.,24.0,0.,24.0
1989-08-27T03:08:32.490 ,3,0,0.,24.0,0.,24.0,0.,24.0,0.,24.0
1989-08-27T03:08:56.490 ,2,1,0.,24.0,0.,24.0,0.,24.0,0.,24.0
1989-08-27T03:09:20.490 ,2,0,0.,24.0,0.,24.0,0.,24.0,0.,24.0
1989-08-27T03:09:44.490 ,1,1,0.,24.0,0.,24.0,0.,24.0,0.,24.0
1989-08-27T03:10:08.490 ,1,0,0.,24.0,0.,24.0,0.,24.0,0.,24.0
1989-08-27T03:10:32.490 ,0,1,0.,24.0,0.,24.0,0.,24.0,0.,24.0
1989-08-27T03:10:56.490 ,0,0,0.,24.0,0.,24.0,0.,24.0,0.,24.0
1989-08-27T03:11:20.490 ,0,1,0.,24.0,0.,24.0,0.,24.0,0.,24.0
1989-08-27T03:11:44.490 ,0,0,0.,24.0,0.,24.0,0.,24.0,0.,24.0
1989-08-27T03:12:08.490 ,1,1,0.,24.0,0.,24.0,0.,24.0,0.,24.0
1989-08-27T03:12:32.490 ,1,0,0.,24.0,0.,24.0,0.,24.0,0.,24.0
1989-08-27T03:12:56.490 ,2,1,0.,24.0,0.,24.0,0.,24.0,0.,24.0
1989-08-27T03:13:20.490 ,2,0,0.,24.0,0.,24.0,0.,24.0,0.,24.0
1989-08-27T03:13:44.490 ,3,1,0.,24.0,0.,24.0,0.,24.0,0.,24.0
1989-08-27T03:14:08.490 ,3,0,0.,24.0,0.,24.0,0.,24.0,0.,24.0
1989-08-27T03:14:32.490 ,4,1,0.,24.0,0.,24.0,0.,24.0,0.,24.0
1989-08-27T03:14:56.490 ,4,0,0.,24.0,0.,24.0,0.,24.0,0.,24.0
1989-08-27T03:15:20.490 ,5,1,0.,24.0,0.,24.0,0.,24.0,0.,24.0
1989-08-27T03:15:44.490 ,5,0,0.,24.0,0.,24.0,0.,24.0,0.,24.0
1989-08-27T03:16:08.490 ,6,1,0.,24.0,0.,24.0,0.,24.0,0.,24.0
1989-08-27T03:16:32.490 ,6,0,0.,24.0,0.,24.0,0.,24.0,0.,24.0
1989-08-27T03:16:56.490 ,7,1,0.,24.0,0.,24.0,0.,24.0,0.,24.0
1989-08-27T03:17:20.490 ,7,0,0.,24.0,0.,24.0,0.,24.0,0.,24.0
1989-08-27T03:17:44.490 ,7,1,0.,24.0,0.,24.0,0.,24.0,0.,24.0
1989-08-27T03:18:08.490 ,7,0,0.,24.0,0.,24.0,0.,24.0,0.,24.0
1989-08-27T03:18:32.490 ,6,1,0.,24.0,0.,24.0,0.,24.0,0.,24.0
1989-08-27T03:18:56.490 ,6,0,0.,24.0,0.,24.0,0.,24.0,0.,24.0
1989-08-27T03:19:20.490 ,5,1,0.,24.0,0.,24.0,0.,24.0,0.,24.0
1989-08-27T03:19:44.490 ,5,0,0.,24.0,0.,24.0,0.,24.0,0.,24.0
1989-08-27T03:20:08.490 ,4,1,0.,24.0,0.,24.0,0.,24.0,0.,24.0
1989-08-27T03:20:32.490 ,4,0,0.,24.0,0.,24.0,0.,24.0,0.,24.0
1989-08-27T03:20:56.490 ,3,1,0.,24.0,0.,24.0,0.,24.0,0.,24.0
1989-08-27T03:21:20.490 ,3,0,0.,24.0,0.,24.0,0.,24.0,0.,24.0
1989-08-27T03:21:44.490 ,2,0,,0,,0,,0,,0
1989-08-27T03:22:08.490 ,2,0,0.,24.0,0.,24.0,0.,24.0,0.,24.0
1989-08-27T03:22:32.490 ,1,1,0.,24.0,0.,24.0,0.,24.0,0.,24.0
1989-08-27T03:22:56.490 ,1,0,0.,24.0,0.,24.0,0.,24.0,0.,24.0
1989-08-27T03:23:20.490 ,0,1,0.,24.0,0.,24.0,0.,24.0,0.,24.0
1989-08-27T03:23:44.490 ,0,0,0.,24.0,0.,24.0,0.,24.0,0.,24.0
1989-08-27T03:24:08.490 ,0,0,,0,,0,,0,,0
1989-08-27T03:24:32.490 ,0,0,,0,,0,,0,,0
1989-08-27T03:24:16.290 ,0,1,0.,24.0,0.,24.0,0.,24.0,0.,24.0
1989-08-27T03:24:32.490 ,0,0,0.,24.0,0.,24.0,0.,24.0,0.,24.0
1989-08-27T03:25:27.690 ,0,0,0.,24.0,0.,24.0,0.,24.0,0.,24.0
1989-08-27T03:25:44.490 ,2,1,0.,24.0,0.,24.0,0.,24.0,0.,24.0
1989-08-27T03:26:08.490 ,2,0,0.,24.0,0.,24.0,0.,24.0,0.,24.0
1989-08-27T03:26:32.490 ,3,1,0.,24.0,0.,24.0,0.,24.0,0.,24.0
1989-08-27T03:26:56.490 ,3,0,0.,24.0,0.,24.0,0.,24.0,0.,24.0
1989-08-27T03:27:20.490 ,4,1,0.,24.0,0.,24.0,0.,24.0,0.,24.0
1989-08-27T03:27:44.490 ,4,0,0.,24.0,0.,24.0,0.,24.0,0.,24.0
1989-08-27T03:28:08.490 ,5,1,0.,24.0,0.,24.0,0.,24.0,0.,24.0
1989-08-27T03:28:32.490 ,5,0,0.,24.0,0.,24.0,0.,24.0,0.,24.0
1989-08-27T03:28:56.490 ,6,1,0.,24.0,0.,24.0,0.,24.0,0.,24.0
1989-08-27T03:29:20.490 ,6,0,0.,24.0,0.,24.0,0.,24.0,0.,24.0
1989-08-27T03:29:44.490 ,7,1,0.,24.0,0.,24.0,0.,24.0,0.,24.0
1989-08-27T03:30:08.490 ,7,0,0.,24.0,0.,24.0,0.,24.0,0.,24.0
1989-08-27T03:30:32.490 ,7,1,0.,24.0,0.,24.0,0.,24.0,0.,24.0
1989-08-27T03:30:56.490 ,7,0,0.,24.0,0.,24.0,0.,24.0,0.,24.0
1989-08-27T03:31:20.490 ,6,1,0.,24.0,0.,24.0,0.,24.0,0.,24.0
1989-08-27T03:31:44.490 ,6,0,0.,24.0,0.,24.0,0.,24.0,0.,24.0
1989-08-27T03:32:08.490 ,5,1,0.,24.0,0.,24.0,0.,24.0,0.,24.0
1989-08-27T03:32:32.490 ,5,0,0.,24.0,0.,24.0,0.,24.0,0.,24.0
1989-08-27T03:32:56.490 ,4,1,0.,24.0,0.,24.0,0.,24.0,0.,24.0
1989-08-27T03:33:20.490 ,4,0,0.,24.0,0.,24.0,0.,24.0,0.,24.0
1989-08-27T03:33:44.490 ,3,1,0.,24.0,0.,24.0,0.,24.0,0.,24.0
1989-08-27T03:34:08.490 ,3,0,0.,24.0,0.,24.0,0.,24.0,0.,24.0
1989-08-27T03:34:32.490 ,2,1,0.,24.0,0.,24.0,0.,24.0,0.,24.0
1989-08-27T03:34:56.490 ,2,0,0.,24.0,0.,24.0,0.,24.0,0.,24.0
1989-08-27T03:35:20.490 ,1,1,0.,24.0,0.,24.0,0.,24.0,0.,24.0
1989-08-27T03:35:44.490 ,1,0,0.,24.0,0.,24.0,0.,24.0,0.,24.0
1989-08-27T03:36:08.490 ,0,1,0.,24.0,0.,24.0,0.,24.0,0.,24.0
1989-08-27T03:36:32.490 ,0,0,0.,24.0,0.,24.0,0.,24.0,0.,24.0
1989-08-27T03:36:56.490 ,0,1,0.,24.0,0.,24.0,0.,24.0,0.,24.0
1989-08-27T03:37:20.490 ,0,0,0.,24.0,0.,24.0,0.,24.0,0.,24.0
1989-08-27T03:37:44.490 ,1,1,0.,24.0,0.,24.0,0.,24.0,0.,24.0
1989-08-27T03:38:08.490 ,1,0,0.,24.0,0.,24.0,0.,24.0,0.,24.0
1989-08-27T03:38:32.490 ,2,1,0.,24.0,0.,24.0,0.,24.0,0.,24.0
1989-08-27T03:38:56.490 ,2,0,0.,24.0,0.,24.0,0.,24.0,0.,24.0
1989-08-27T03:39:20.490 ,3,1,0.,24.0,0.,24.0,0.,24.0,0.,24.0
1989-08-27T03:39:44.490 ,3,0,0.,24.0,0.,24.0,0.,24.0,0.,24.0
1989-08-27T03:40:08.490 ,4,1,0.,24.0,0.,24.0,0.,24.0,0.,24.0
1989-08-27T03:40:32.490 ,4,0,0.,24.0,0.,24.0,0.,24.0,0.,24.0
1989-08-27T03:40:56.490 ,5,1,0.,24.0,0.,24.0,0.,24.0,0.,24.0
1989-08-27T03:41:20.490 ,5,0,0.,24.0,0.,24.0,0.,24.0,0.,24.0
1989-08-27T03:41:44.490 ,6,1,0.,24.0,0.,24.0,0.,24.0,0.,24.0
1989-08-27T03:42:08.490 ,6,0,0.,24.0,0.,24.0,0.,24.0,0.,24.0
1989-08-27T03:42:32.490 ,7,1,0.,24.0,0.,24.0,0.,24.0,0.,24.0
1989-08-27T03:42:56.490 ,7,0,0.,24.0,0.,24.0,0.,24.0,0.,24.0
1989-08-27T03:43:20.490 ,7,1,0.,24.0,0.,24.0,0.,24.0,0.,24.0
1989-08-27T03:43:44.490 ,7,0,0.,24.0,0.,24.0,0.,24.0,0.,24.0
1989-08-27T03:44:08.490 ,6,1,0.,24.0,0.,24.0,0.,24.0,0.,24.0
1989-08-27T03:44:32.490 ,6,0,0.,24.0,0.,24.0,0.,24.0,0.,24.0
1989-08-27T03:44:56.490 ,5,1,0.,24.0,0.,24.0,0.,24.0,0.,24.0
1989-08-27T03:45:20.490 ,5,0,0.,24.0,0.,24.0,0.,24.0,0.,24.0
1989-08-27T03:45:44.490 ,4,1,0.,24.0,0.,24.0,0.,24.0,0.,24.0
1989-08-27T03:46:08.490 ,4,0,0.,24.0,0.,24.0,0.,24.0,0.,24.0
1989-08-27T03:46:32.490 ,3,1,0.,24.0,0.,24.0,0.,24.0,0.,24.0
1989-08-27T03:46:56.490 ,3,0,0.,24.0,0.,24.0,0.,24.0,0.,24.0
1989-08-27T03:47:20.490 ,2,1,0.,24.0,0.,24.0,0.,24.0,0.,24.0
1989-08-27T03:47:44.490 ,2,0,0.,24.0,0.,24.0,0.,24.0,0.,24.0
1989-08-27T03:48:08.490 ,1,1,0.,24.0,0.,24.0,0.,24.0,0.,24.0
1989-08-27T03:48:32.490 ,1,0,0.,24.0,0.,24.0,0.,24.0,0.,24.0
1989-08-27T03:48:56.490 ,0,1,0.,24.0,0.,24.0,0.,24.0,0.,24.0
1989-08-27T03:49:20.490 ,0,0,0.,24.0,0.,24.0,0.,24.0,0.,24.0
1989-08-27T03:49:44.490 ,0,1,0.,24.0,0.,24.0,0.,24.0,0.,24.0
1989-08-27T03:50:08.490 ,0,0,0.,24.0,0.,24.0,0.,24.0,0.,24.0
1989-08-27T03:50:32.490 ,1,1,0.,24.0,0.,24.0,0.,24.0,0.,24.0
1989-08-27T03:50:56.490 ,1,0,0.,24.0,0.,24.0,0.,24.0,0.,24.0
1989-08-27T03:51:20.490 ,2,1,0.,24.0,0.,24.0,0.,24.0,0.,24.0
1989-08-27T03:51:44.490 ,2,0,0.,24.0,0.,24.0,0.,24.0,0.,24.0
1989-08-27T03:52:08.490 ,3,1,0.,24.0,0.,24.0,0.,24.0,0.,24.0
1989-08-27T03:52:32.490 ,3,0,0.,24.0,0.,24.0,0.,24.0,0.,24.0
1989-08-27T03:52:56.490 ,4,1,0.,24.0,0.,24.0,0.,24.0,0.,24.0
1989-08-27T03:53:20.490 ,4,0,0.,24.0,0.,24.0,0.,24.0,0.,24.0
1989-08-27T03:53:44.490 ,5,1,0.,24.0,0.,24.0,0.,24.0,0.,24.0
1989-08-27T03:54:08.490 ,5,0,0.,24.0,0.,24.0,0.,24.0,0.,24.0
1989-08-27T03:54:32.490 ,6,1,0.,24.0,0.,24.0,0.,24.0,0.,24.0
1989-08-27T03:54:56.490 ,6,0,0.,24.0,0.,24.0,0.,24.0,0.,24.0
1989-08-27T03:55:20.490 ,7,1,0.,24.0,0.,24.0,0.,24.0,0.,24.0
1989-08-27T03:55:44.490 ,7,0,0.,24.0,0.,24.0,0.,24.0,0.,24.0
1989-08-27T03:56:08.490 ,7,1,0.,24.0,0.,24.0,0.,24.0,0.,24.0
1989-08-27T03:56:32.490 ,7,0,0.,24.0,0.,24.0,0.,24.0,0.,24.0
1989-08-27T03:56:56.490 ,6,1,0.,24.0,0.,24.0,0.,24.0,0.,24.0
1989-08-27T03:57:20.490 ,6,0,0.,24.0,0.,24.0,0.,24.0,0.,24.0
1989-08-27T03:57:44.490 ,5,1,0.,24.0,0.,24.0,0.,24.0,0.,24.0
1989-08-27T03:58:08.490 ,5,0,0.,24.0,0.,24.0,0.,24.0,0.,24.0
1989-08-27T03:58:32.490 ,4,1,0.,24.0,0.,24.0,0.,24.0,0.,24.0
1989-08-27T03:58:56.490 ,4,0,0.,24.0,0.,24.0,0.,24.0,0.,24.0
1989-08-27T03:59:20.490 ,3,1,0.,24.0,0.,24.0,0.,24.0,0.,24.0
1989-08-27T03:59:44.490 ,3,0,0.,24.0,0.,24.0,0.,24.0,0.,24.0
1989-08-27T04:00:08.490 ,2,1,0.,24.0,0.,24.0,0.,24.0,0.,24.0
1989-08-27T04:00:32.490 ,2,0,0.,24.0,0.,24.0,0.,24.0,0.,24.0
1989-08-27T04:00:56.490 ,1,1,0.,24.0,0.,24.0,0.,24.0,0.,24.0
1989-08-27T04:01:20.490 ,1,0,0.,24.0,0.,24.0,0.,24.0,0.,24.0
1989-08-27T04:01:44.490 ,0,1,0.,24.0,0.,24.0,0.,24.0,0.,24.0
1989-08-27T04:02:08.490 ,0,0,0.,24.0,0.,24.0,0.,24.0,0.,24.0
1989-08-27T04:02:32.490 ,0,1,0.,24.0,0.,24.0,0.,24.0,0.,24.0
1989-08-27T04:02:56.490 ,0,0,0.,24.0,0.,24.0,0.,24.0,0.,24.0
1989-08-27T04:03:20.490 ,1,1,0.,24.0,0.,24.0,0.,24.0,0.,24.0
1989-08-27T04:03:44.490 ,1,0,0.,24.0,0.,24.0,0.,24.0,0.,24.0
1989-08-27T04:04:08.490 ,2,1,0.,24.0,0.,24.0,0.,24.0,0.,24.0
1989-08-27T04:04:32.490 ,2,0,0.,24.0,0.,24.0,0.,24.0,0.,24.0
1989-08-27T04:04:56.490 ,3,1,0.,24.0,0.,24.0,0.,24.0,0.,24.0
1989-08-27T04:05:20.490 ,3,0,0.,24.0,0.,24.0,0.,24.0,0.,24.0
1989-08-27T04:05:44.490 ,4,1,0.,24.0,0.,24.0,0.,24.0,0.,24.0
1989-08-27T04:06:08.490 ,4,0,0.,24.0,0.,24.0,0.,24.0,0.,24.0
1989-08-27T04:06:32.490 ,5,1,0.,24.0,0.,24.0,0.,24.0,0.,24.0
1989-08-27T04:06:56.490 ,5,0,0.,24.0,0.,24.0,0.,24.0,0.,24.0
1989-08-27T04:07:20.490 ,6,1,0.,24.0,0.,24.0,0.,24.0,0.,24.0
1989-08-27T04:07:44.490 ,6,0,0.,24.0,0.,24.0,0.,24.0,0.,24.0
1989-08-27T04:08:08.490 ,7,1,0.,24.0,0.,24.0,0.,24.0,0.,24.0
1989-08-27T04:08:32.490 ,7,0,0.,24.0,0.,24.0,0.,24.0,0.,24.0
1989-08-27T04:08:56.490 ,7,1,0.,24.0,0.,24.0,0.,24.0,0.,24.0
1989-08-27T04:09:20.490 ,7,0,0.,24.0,0.,24.0,0.,24.0,0.,24.0
1989-08-27T04:09:44.490 ,6,1,0.,24.0,0.,24.0,0.,24.0,0.,24.0
1989-08-27T04:10:08.490 ,6,0,0.,24.0,0.,24.0,0.,24.0,0.,24.0
1989-08-27T04:10:32.490 ,5,1,0.,24.0,0.,24.0,0.,24.0,0.,24.0
1989-08-27T04:10:56.490 ,5,0,0.,24.0,0.,24.0,0.,24.0,0.,24.0
1989-08-27T04:11:20.490 ,4,1,0.,24.0,0.,24.0,0.,24.0,0.,24.0
1989-08-27T04:11:44.490 ,4,0,0.,24.0,0.,24.0,0.,24.0,0.,24.0
1989-08-27T04:12:08.490 ,3,1,0.,24.0,0.,24.0,0.,24.0,0.,24.0
1989-08-27T04:12:32.490 ,3,0,0.,24.0,0.,24.0,0.,24.0,0.,24.0
1989-08-27T04:12:56.490 ,2,1,0.,24.0,0.,24.0,0.,24.0,0.,24.0
1989-08-27T04:13:20.490 ,2,0,0.,24.0,0.,24.0,0.,24.0,0.,24.0
1989-08-27T04:13:44.490 ,1,1,0.,24.0,0.,24.0,0.,24.0,0.,24.0
1989-08-27T04:14:08.490 ,1,0,0.,24.0,0.,24.0,0.,24.0,0.,24.0
1989-08-27T04:14:32.490 ,0,1,0.,24.0,0.,24.0,0.,24.0,0.,24.0
1989-08-27T04:14:56.490 ,0,0,0.,24.0,0.,24.0,0.,24.0,0.,24.0
1989-08-27T04:15:20.490 ,0,1,0.,24.0,0.,24.0,0.,24.0,0.,24.0
1989-08-27T04:15:44.490 ,0,0,0.,24.0,0.,24.0,0.,24.0,0.,24.0
1989-08-27T04:16:08.490 ,1,1,0.,24.0,0.,24.0,0.,24.0,0.,24.0
1989-08-27T04:16:32.490 ,1,0,0.,24.0,0.,24.0,0.,24.0,0.,24.0
1989-08-27T04:16:56.490 ,2,1,0.,24.0,0.,24.0,0.,24.0,0.,24.0
1989-08-27T04:17:20.490 ,2,0,0.,24.0,0.,24.0,0.,24.0,0.,24.0
1989-08-27T04:17:44.490 ,3,1,0.,24.0,0.,24.0,0.,24.0,0.,24.0
1989-08-27T04:18:08.490 ,3,0,0.,24.0,0.,24.0,0.,24.0,0.,24.0
1989-08-27T04:18:32.490 ,4,1,0.,24.0,0.,24.0,0.,24.0,0.,24.0
1989-08-27T04:18:56.490 ,4,0,0.,24.0,0.,24.0,0.,24.0,0.,24.0
1989-08-27T04:19:20.490 ,5,1,0.,24.0,0.,24.0,0.,24.0,0.,24.0
1989-08-27T04:19:44.490 ,5,0,0.,24.0,0.,24.0,0.,24.0,0.,24.0
1989-08-27T04:20:08.490 ,6,1,0.,24.0,0.,24.0,0.,24.0,0.,24.0
1989-08-27T04:20:32.490 ,6,0,0.,24.0,0.,24.0,0.,24.0,0.,24.0
1989-08-27T04:20:56.490 ,7,1,0.,24.0,0.,24.0,0.,24.0,0.,24.0
1989-08-27T04:21:20.490 ,7,0,0.,24.0,0.,24.0,0.,24.0,0.,24.0
1989-08-27T04:21:44.490 ,7,1,0.,24.0,0.,24.0,0.,24.0,0.,24.0
1989-08-27T04:22:08.490 ,7,0,0.,24.0,0.,24.0,0.,24.0,0.,24.0
1989-08-27T04:22:32.490 ,6,1,0.,24.0,0.,24.0,0.,24.0,0.,24.0
1989-08-27T04:22:56.490 ,6,0,0.,24.0,0.,24.0,0.,24.0,0.,24.0
1989-08-27T04:23:20.490 ,5,1,0.,24.0,0.,24.0,0.,24.0,0.,24.0
1989-08-27T04:23:44.490 ,5,0,0.,24.0,0.,24.0,0.,24.0,0.,24.0
1989-08-27T04:24:08.490 ,4,1,0.,24.0,0.,24.0,0.,24.0,0.,24.0
1989-08-27T04:24:32.490 ,4,0,0.,24.0,0.,24.0,0.,24.0,0.,24.0
1989-08-27T04:24:56.490 ,3,1,0.,24.0,0.,24.0,0.,24.0,0.,24.0
1989-08-27T04:25:20.490 ,3,0,0.,24.0,0.,24.0,0.,24.0,0.,24.0
1989-08-27T04:25:44.490 ,2,1,0.,24.0,0.,24.0,0.,24.0,0.,24.0
1989-08-27T04:26:08.490 ,2,0,0.,24.0,0.,24.0,0.,24.0,0.,24.0
1989-08-27T04:26:32.490 ,1,1,0.,24.0,0.,24.0,0.,24.0,0.,24.0
1989-08-27T04:26:56.490 ,1,0,0.,24.0,0.,24.0,0.,24.0,0.,24.0
1989-08-27T04:27:20.490 ,0,1,0.,24.0,0.,24.0,0.,24.0,0.,24.0
1989-08-27T04:27:44.490 ,0,0,0.,24.0,0.,24.0,0.,24.0,0.,24.0
1989-08-27T04:28:08.490 ,0,1,0.,24.0,0.,24.0,0.,24.0,0.,24.0
1989-08-27T04:28:32.490 ,0,0,0.,24.0,0.,24.0,0.,24.0,0.,24.0
1989-08-27T04:28:56.490 ,1,1,0.,24.0,0.,24.0,0.,24.0,0.,24.0
1989-08-27T04:29:20.490 ,1,0,0.,24.0,0.,24.0,0.,24.0,0.,24.0
1989-08-27T04:29:44.480 ,2,1,0.,24.0,0.,24.0,0.,24.0,0.,24.0
1989-08-27T04:30:08.480 ,2,0,0.,24.0,0.,24.0,0.,24.0,0.,24.0
1989-08-27T04:30:32.480 ,3,1,0.,24.0,0.,24.0,0.,24.0,0.,24.0
1989-08-27T04:30:56.480 ,3,0,0.,24.0,0.,24.0,0.,24.0,0.,24.0
1989-08-27T04:31:20.480 ,4,1,0.,24.0,0.,24.0,0.,24.0,0.,24.0
1989-08-27T04:31:44.480 ,4,0,0.,24.0,0.,24.0,0.,24.0,0.,24.0
1989-08-27T04:32:08.480 ,5,1,0.,24.0,0.,24.0,0.,24.0,0.,24.0
1989-08-27T04:32:32.480 ,5,0,0.,24.0,0.,24.0,0.,24.0,0.,24.0
1989-08-27T04:32:56.480 ,6,1,0.,24.0,0.,24.0,0.,24.0,0.,24.0
1989-08-27T04:33:20.480 ,6,0,0.,24.0,0.,24.0,0.,24.0,0.,24.0
1989-08-27T04:33:44.480 ,7,1,0.,24.0,0.,24.0,0.,24.0,0.,24.0
1989-08-27T04:34:08.480 ,7,0,0.,24.0,0.,24.0,0.,24.0,0.,24.0
1989-08-27T04:34:32.480 ,7,1,0.,24.0,0.,24.0,0.,24.0,0.,24.0
1989-08-27T04:34:56.480 ,7,0,0.,24.0,0.,24.0,0.,24.0,0.,24.0
1989-08-27T04:35:20.480 ,6,1,0.,24.0,0.,24.0,0.,24.0,0.,24.0
1989-08-27T04:35:44.480 ,6,0,0.,24.0,0.,24.0,0.,24.0,0.,24.0
1989-08-27T04:36:08.480 ,5,1,0.,24.0,0.,24.0,0.,24.0,0.,24.0
1989-08-27T04:36:32.480 ,5,0,0.,24.0,0.,24.0,0.,24.0,0.,24.0
1989-08-27T04:36:56.480 ,4,1,0.,24.0,0.,24.0,0.,24.0,0.,24.0
1989-08-27T04:37:20.480 ,4,0,0.,24.0,0.,24.0,0.,24.0,0.,24.0
1989-08-27T04:37:44.480 ,3,1,0.,24.0,0.,24.0,0.,24.0,0.,24.0
1989-08-27T04:38:08.480 ,3,0,0.,24.0,0.,24.0,0.,24.0,0.,24.0
1989-08-27T04:38:32.480 ,2,1,0.,24.0,0.,24.0,0.,24.0,0.,24.0
1989-08-27T04:38:56.480 ,2,0,0.,24.0,0.,24.0,0.,24.0,0.,24.0
1989-08-27T04:39:20.480 ,1,1,0.,24.0,0.,24.0,0.,24.0,0.,24.0
1989-08-27T04:39:44.480 ,1,0,0.,24.0,0.,24.0,0.,24.0,0.,24.0
1989-08-27T04:40:08.480 ,0,1,0.,24.0,0.,24.0,0.,24.0,0.,24.0
1989-08-27T04:40:32.480 ,0,0,0.,24.0,0.,24.0,0.,24.0,0.,24.0
1989-08-27T04:40:56.480 ,0,1,0.,24.0,0.,24.0,0.,24.0,0.,24.0
1989-08-27T04:41:20.480 ,0,0,0.,24.0,0.,24.0,0.,24.0,0.,24.0
1989-08-27T04:41:44.480 ,1,1,0.,24.0,0.,24.0,0.,24.0,0.,24.0
1989-08-27T04:42:08.480 ,1,0,0.,24.0,0.,24.0,0.,24.0,0.,24.0
1989-08-27T04:42:32.480 ,2,1,0.,24.0,0.,24.0,0.,24.0,0.,24.0
1989-08-27T04:42:56.480 ,2,0,0.,24.0,0.,24.0,0.,24.0,0.,24.0
1989-08-27T04:43:20.480 ,3,1,0.,24.0,0.,24.0,0.,24.0,0.,24.0
1989-08-27T04:43:44.480 ,3,0,0.,24.0,0.,24.0,0.,24.0,0.,24.0
1989-08-27T04:44:08.480 ,4,1,0.,24.0,0.,24.0,0.,24.0,0.,24.0
1989-08-27T04:44:32.480 ,4,0,0.,24.0,0.,24.0,0.,24.0,0.,24.0
1989-08-27T04:44:56.480 ,5,1,0.,24.0,0.,24.0,0.,24.0,0.,24.0
1989-08-27T04:45:20.480 ,5,0,0.,24.0,0.,24.0,0.,24.0,0.,24.0
1989-08-27T04:45:44.480 ,6,1,0.,24.0,0.,24.0,0.,24.0,0.,24.0
1989-08-27T04:46:08.480 ,6,0,0.,24.0,0.,24.0,0.,24.0,0.,24.0
1989-08-27T04:46:32.480 ,7,1,0.,24.0,0.,24.0,0.,24.0,0.,24.0
1989-08-27T04:46:56.480 ,7,0,0.,24.0,0.,24.0,0.,24.0,0.,24.0
1989-08-27T04:47:20.480 ,7,1,0.,24.0,0.,24.0,0.,24.0,0.,24.0
1989-08-27T04:47:44.480 ,7,0,0.,24.0,0.,24.0,0.,24.0,0.,24.0
1989-08-27T04:48:08.480 ,6,1,0.,24.0,0.,24.0,0.,24.0,0.,24.0
1989-08-27T04:48:32.480 ,6,0,0.,24.0,0.,24.0,0.,24.0,0.,24.0
1989-08-27T04:48:56.480 ,5,1,0.,24.0,0.,24.0,0.,24.0,0.,24.0
1989-08-27T04:49:20.480 ,5,0,0.,24.0,0.,24.0,0.,24.0,0.,24.0
1989-08-27T04:49:44.480 ,4,1,0.,24.0,0.,24.0,0.,24.0,0.,24.0
1989-08-27T04:50:08.480 ,4,0,0.,24.0,0.,24.0,0.,24.0,0.,24.0
1989-08-27T04:50:32.480 ,3,1,0.,24.0,0.,24.0,0.,24.0,0.,24.0
1989-08-27T04:50:56.480 ,3,0,0.,24.0,0.,24.0,0.,24.0,0.,24.0
1989-08-27T04:51:20.480 ,2,1,0.,24.0,0.,24.0,0.,24.0,0.,24.0
1989-08-27T04:51:44.480 ,2,0,0.,24.0,0.,24.0,0.,24.0,0.,24.0
1989-08-27T04:52:08.480 ,1,1,0.,24.0,0.,24.0,0.,24.0,0.,24.0
1989-08-27T04:52:32.480 ,1,0,0.,24.0,0.,24.0,0.,24.0,0.,24.0
1989-08-27T04:52:56.480 ,0,1,0.,24.0,0.,24.0,0.,24.0,0.,24.0
1989-08-27T04:53:20.480 ,0,0,0.,24.0,0.,24.0,0.,24.0,0.,24.0
1989-08-27T04:53:44.480 ,0,1,0.,24.0,0.,24.0,0.,24.0,0.,24.0
1989-08-27T04:54:08.480 ,0,0,0.,24.0,0.,24.0,0.,24.0,0.,24.0
1989-08-27T04:54:32.480 ,1,1,0.,24.0,0.,24.0,0.,24.0,0.,24.0
1989-08-27T04:54:56.480 ,1,0,0.,24.0,0.,24.0,0.,24.0,0.,24.0
1989-08-27T04:55:20.480 ,2,1,0.,24.0,0.,24.0,0.,24.0,0.,24.0
1989-08-27T04:55:44.480 ,2,0,0.,24.0,0.,24.0,0.,24.0,0.,24.0
1989-08-27T04:56:08.480 ,3,1,0.,24.0,0.,24.0,0.,24.0,0.,24.0
1989-08-27T04:56:32.480 ,3,0,0.,24.0,0.,24.0,0.,24.0,0.,24.0
1989-08-27T04:56:56.480 ,4,1,0.,24.0,0.,24.0,0.,24.0,0.,24.0
1989-08-27T04:57:20.480 ,4,0,0.,24.0,0.,24.0,0.,24.0,0.,24.0
1989-08-27T04:57:44.480 ,5,1,0.,24.0,0.,24.0,0.,24.0,0.,24.0
1989-08-27T04:58:08.480 ,5,0,0.,24.0,0.,24.0,0.,24.0,0.,24.0
1989-08-27T04:58:32.480 ,6,1,0.,24.0,0.,24.0,0.,24.0,0.,24.0
1989-08-27T04:58:56.480 ,6,0,0.,24.0,0.,24.0,0.,24.0,0.,24.0
1989-08-27T04:59:20.480 ,7,1,0.,24.0,0.,24.0,0.,24.0,0.,24.0
1989-08-27T04:59:44.480 ,7,0,0.,24.0,0.,24.0,0.,24.0,0.,24.0
1989-08-27T05:00:08.480 ,7,1,0.,24.0,0.,24.0,0.,24.0,0.,24.0
1989-08-27T05:00:32.480 ,7,0,0.,24.0,0.,24.0,0.,24.0,0.,24.0
1989-08-27T05:00:56.480 ,6,1,0.,24.0,0.,24.0,0.,24.0,0.,24.0
1989-08-27T05:01:20.480 ,6,0,0.,24.0,0.,24.0,0.,24.0,0.,24.0
1989-08-27T05:01:44.480 ,5,1,0.,24.0,0.,24.0,0.,24.0,0.,24.0
1989-08-27T05:02:08.480 ,5,0,0.,24.0,0.,24.0,0.,24.0,0.,24.0
1989-08-27T05:02:32.480 ,4,1,0.,24.0,0.,24.0,0.,24.0,0.,24.0
1989-08-27T05:02:56.480 ,4,0,0.,24.0,0.,24.0,0.,24.0,0.,24.0
1989-08-27T05:03:20.480 ,3,1,0.,24.0,0.,24.0,0.,24.0,0.,24.0
1989-08-27T05:03:44.480 ,3,0,0.,24.0,0.,24.0,0.,24.0,0.,24.0
1989-08-27T05:04:08.480 ,2,1,0.,24.0,0.,24.0,0.,24.0,0.,24.0
1989-08-27T05:04:32.480 ,2,0,0.,24.0,0.,24.0,0.,24.0,0.,24.0
1989-08-27T05:04:56.480 ,1,1,0.,24.0,0.,24.0,0.,24.0,0.,24.0
1989-08-27T05:05:20.480 ,1,0,0.,24.0,0.,24.0,0.,24.0,0.,24.0
1989-08-27T05:05:44.480 ,0,1,0.,24.0,0.,24.0,0.,24.0,0.,24.0
1989-08-27T05:06:08.480 ,0,0,0.,24.0,0.,24.0,0.,24.0,0.,24.0
1989-08-27T05:06:32.480 ,0,1,0.,24.0,0.,24.0,0.,24.0,0.,24.0
1989-08-27T05:06:56.480 ,0,0,0.,24.0,0.,24.0,0.,24.0,0.,24.0
1989-08-27T05:07:20.480 ,1,1,0.,24.0,0.,24.0,0.,24.0,0.,24.0
1989-08-27T05:07:44.480 ,1,0,0.,24.0,0.,24.0,0.,24.0,0.,24.0
1989-08-27T05:08:08.480 ,2,1,0.,24.0,0.,24.0,0.,24.0,0.,24.0
1989-08-27T05:08:32.480 ,2,0,0.,24.0,0.,24.0,0.,24.0,0.,24.0
1989-08-27T05:08:56.480 ,3,1,0.,24.0,0.,24.0,0.,24.0,0.,24.0
1989-08-27T05:09:20.480 ,3,0,0.,24.0,0.,24.0,0.,24.0,0.,24.0
1989-08-27T05:09:44.480 ,4,1,0.,24.0,0.,24.0,0.,24.0,0.,24.0
1989-08-27T05:10:08.480 ,4,0,0.,24.0,0.,24.0,0.,24.0,0.,24.0
1989-08-27T05:10:32.480 ,5,1,0.,24.0,0.,24.0,0.,24.0,0.,24.0
1989-08-27T05:10:56.480 ,5,0,0.,24.0,0.,24.0,0.,24.0,0.,24.0
1989-08-27T05:11:20.480 ,6,1,0.,24.0,0.,24.0,0.,24.0,0.,24.0
1989-08-27T05:11:44.480 ,6,0,0.,24.0,0.,24.0,0.,24.0,0.,24.0
1989-08-27T05:12:08.480 ,7,1,0.,24.0,0.,24.0,0.,24.0,0.,24.0
1989-08-27T05:12:32.480 ,7,0,0.,24.0,0.,24.0,0.,24.0,0.,24.0
1989-08-27T05:12:56.480 ,7,1,0.,24.0,0.,24.0,0.,24.0,0.,24.0
1989-08-27T05:13:20.480 ,7,0,0.,24.0,0.,24.0,0.,24.0,0.,24.0
1989-08-27T05:13:44.480 ,6,1,0.,24.0,0.,24.0,0.,24.0,0.,24.0
1989-08-27T05:14:08.480 ,6,0,0.,24.0,0.,24.0,0.,24.0,0.,24.0
1989-08-27T05:14:32.480 ,5,1,0.,24.0,0.,24.0,0.,24.0,0.,24.0
1989-08-27T05:14:56.480 ,5,0,0.,24.0,0.,24.0,0.,24.0,0.,24.0
1989-08-27T05:15:20.480 ,4,1,0.,24.0,0.,24.0,0.,24.0,0.,24.0
1989-08-27T05:15:44.480 ,4,0,0.,24.0,0.,24.0,0.,24.0,0.,24.0
1989-08-27T05:16:08.480 ,3,1,0.,24.0,0.,24.0,0.,24.0,0.,24.0
1989-08-27T05:16:32.480 ,3,0,0.,24.0,0.,24.0,0.,24.0,0.,24.0
1989-08-27T05:16:56.480 ,2,1,0.,24.0,0.,24.0,0.,24.0,0.,24.0
1989-08-27T05:17:20.480 ,2,0,0.,24.0,0.,24.0,0.,24.0,0.,24.0
1989-08-27T05:17:44.480 ,1,1,0.,24.0,0.,24.0,0.,24.0,0.,24.0
1989-08-27T05:18:08.480 ,1,0,0.,24.0,0.,24.0,0.,24.0,0.,24.0
1989-08-27T05:18:32.480 ,0,1,0.,24.0,0.,24.0,0.,24.0,0.,24.0
1989-08-27T05:18:56.480 ,0,0,0.,24.0,0.,24.0,0.,24.0,0.,24.0
1989-08-27T05:19:20.480 ,0,1,0.,24.0,0.,24.0,0.,24.0,0.,24.0
1989-08-27T05:19:44.480 ,0,0,0.,24.0,0.,24.0,0.,24.0,0.,24.0
1989-08-27T05:20:08.480 ,1,1,0.,24.0,0.,24.0,0.,24.0,0.,24.0
1989-08-27T05:20:32.480 ,1,0,0.,24.0,0.,24.0,0.,24.0,0.,24.0
1989-08-27T05:20:56.480 ,2,1,0.,24.0,0.,24.0,0.,24.0,0.,24.0
1989-08-27T05:21:20.480 ,2,0,0.,24.0,0.,24.0,0.,24.0,0.,24.0
1989-08-27T05:21:44.480 ,3,1,0.,24.0,0.,24.0,0.,24.0,0.,24.0
1989-08-27T05:22:08.480 ,3,0,0.,24.0,0.,24.0,0.,24.0,0.,24.0
1989-08-27T05:22:32.480 ,4,1,0.,24.0,0.,24.0,0.,24.0,0.,24.0
1989-08-27T05:22:56.480 ,4,0,0.,24.0,0.,24.0,0.,24.0,0.,24.0
1989-08-27T05:23:20.480 ,5,1,0.,24.0,0.,24.0,0.,24.0,0.,24.0
1989-08-27T05:23:44.480 ,5,0,0.,24.0,0.,24.0,0.,24.0,0.,24.0
1989-08-27T05:24:08.480 ,6,1,0.,24.0,0.,24.0,0.,24.0,0.,24.0
1989-08-27T05:24:32.480 ,6,0,0.,24.0,0.,24.0,0.,24.0,0.,24.0
1989-08-27T05:24:56.480 ,7,1,0.,24.0,0.,24.0,0.,24.0,0.,24.0
1989-08-27T05:25:20.480 ,7,0,0.,24.0,0.,24.0,0.,24.0,0.,24.0
1989-08-27T05:25:44.480 ,7,1,0.,24.0,0.,24.0,0.,24.0,0.,24.0
1989-08-27T05:26:08.480 ,7,0,0.,24.0,0.,24.0,0.,24.0,0.,24.0
1989-08-27T05:26:32.480 ,6,1,0.,24.0,0.,24.0,0.,24.0,0.,24.0
1989-08-27T05:26:56.480 ,6,0,0.,24.0,0.,24.0,0.,24.0,0.,24.0
1989-08-27T05:27:20.480 ,5,1,0.,24.0,0.,24.0,0.,24.0,0.,24.0
1989-08-27T05:27:44.480 ,5,0,0.,24.0,0.,24.0,0.,24.0,0.,24.0
1989-08-27T05:28:08.480 ,4,1,0.,24.0,0.,24.0,0.,24.0,0.,24.0
1989-08-27T05:28:32.480 ,4,0,0.,24.0,0.,24.0,0.,24.0,0.,24.0
1989-08-27T05:28:56.480 ,3,1,0.,24.0,0.,24.0,0.,24.0,0.,24.0
1989-08-27T05:29:20.480 ,3,0,0.,24.0,0.,24.0,0.,24.0,0.,24.0
1989-08-27T05:29:44.480 ,2,1,0.,24.0,0.,24.0,0.,24.0,0.,24.0
1989-08-27T05:30:08.480 ,2,0,0.,24.0,0.,24.0,0.,24.0,0.,24.0
1989-08-27T05:30:32.480 ,1,1,0.,24.0,0.,24.0,0.,24.0,0.,24.0
1989-08-27T05:30:56.480 ,1,0,0.,24.0,0.,24.0,0.,24.0,0.,24.0
1989-08-27T05:31:20.480 ,0,1,0.,24.0,0.,24.0,0.,24.0,0.,24.0
1989-08-27T05:31:44.480 ,0,0,0.,24.0,0.,24.0,0.,24.0,0.,24.0
1989-08-27T05:32:08.480 ,0,1,0.,24.0,0.,24.0,0.,24.0,0.,24.0
1989-08-27T05:32:32.480 ,0,0,0.,24.0,0.,24.0,0.,24.0,0.,24.0
1989-08-27T05:32:56.480 ,1,1,0.,24.0,0.,24.0,0.,24.0,0.,24.0
1989-08-27T05:33:20.480 ,1,0,0.,24.0,0.,24.0,0.,24.0,0.,24.0
1989-08-27T05:33:44.480 ,2,1,0.,24.0,0.,24.0,0.,24.0,0.,24.0
1989-08-27T05:34:08.480 ,2,0,0.,24.0,0.,24.0,0.,24.0,0.,24.0
1989-08-27T05:34:32.480 ,3,1,0.,24.0,0.,24.0,0.,24.0,0.,24.0